Location: Newark
(33.6333°S, 78.8500°W)
Time: 00:45:33
(UTC+00:00)

Tiros 1 despin weight - Pass Details

Date: 20 September 2019
Orbit: 593 x 643 km, 48.2° (Epoch: 21 October)

Event Time Altitude Azimuth Distance (km) Brightness Sun altitude
Rises 10:04:39 0° 226° (SW) 2,952 - -14.0°
Exits shadow 10:05:42 - 221° (SW) 2,595 ? -13.8°
Reaches altitude 10° 10:07:29 10° 209° (SSW) 2,047 ? -13.4°
Maximum altitude 10:11:05 21° 160° (SSE) 1,453 ? -12.6°
Drops below altitude 10° 10:14:41 10° 110° (ESE) 2,049 ? -11.9°
Sets 10:17:31 0° 94° (E) 2,956 ? -11.3°
